* Astronomy

Members Login
Username 
 
Password 
    Remember Me  
Post Info TOPIC: Asteroid 2012 BX85


L

Posts: 131433
Date:
Asteroid 2012 BX85
Permalink  
 


Orbital elements:
2012 BX85
Epoch 2012 Sept. 30.0 TT = JDT 2456200.5                MPC
M 189.04900              (2000.0)            P               Q
n   0.00351226     Peri.  346.03469     +0.50451748     +0.86329457
a  42.8625950      Node   314.26258     -0.79032301     +0.45542199
e   0.0036682      Incl.    1.08705     -0.34763723     +0.21751620
P 281              H    5.5           G   0.15           U   4

MPEC 2012 - W20

Ed ~ 210 - 470 km wide



__________________
Page 1 of 1  sorted by
Quick Reply

Please log in to post quick replies.



Create your own FREE Forum
Report Abuse
Powered by ActiveBoard